Location: Ab? ar R?sh Ba?r?
(24.1861°N, 32.8847°E)
Time: 09:36:53
(UTC+00:00)

CZ-2D DEB - Visible Passes

Search period start: 16 August 2022 00:00
Search period end: 26 August 2022 00:00
Orbit: 593 x 653 km, 97.7° (Epoch: 15 August)

Date Brightness Start Highest point End Pass type
(mag) Time Alt. Az. Time Alt. Az. Time Alt. Az.
16 Aug ? 17:33:31 16° ENE 17:33:31 16° ENE 17:35:45 10° NNE visible
16 Aug ? 19:10:45 21° WNW 19:10:45 21° WNW 19:12:43 10° NW visible
17 Aug ? 17:52:01 25° NE 17:52:01 25° NE 17:54:50 10° NNE visible
17 Aug ? 19:29:15 12° WNW 19:29:15 12° WNW 19:29:59 10° WNW visible
18 Aug ? 18:10:32 35° NNE 18:10:32 35° NNE 18:13:28 10° N visible
19 Aug ? 18:29:01 38° N 18:29:01 38° N 18:31:49 10° N visible
20 Aug ? 18:47:32 30° NW 18:47:32 30° NW 18:49:56 10° NNW visible
21 Aug ? 17:28:48 14° ENE 17:28:48 14° ENE 17:30:22 10° NE visible
21 Aug ? 19:06:02 20° NW 19:06:02 20° NW 19:07:47 10° NW visible
22 Aug ? 17:47:18 21° NE 17:47:18 21° NE 17:49:36 10° NNE visible
22 Aug ? 19:24:32 13° WNW 19:24:32 13° WNW 19:25:13 10° NW visible
23 Aug ? 18:05:47 28° NNE 18:05:47 28° NNE 18:08:17 10° N visible
24 Aug ? 18:24:18 31° N 18:24:18 31° N 18:26:42 10° N visible
25 Aug ? 18:42:48 26° NNW 18:42:48 26° NNW 18:44:52 10° NNW visible
